Meteo Giornale » Osservazioni meteo Germania » Saarbruecken-Ensheim

ore: 19:20 - Osservazioni Meteo Saarbruecken-Ensheim
Lat. 49° 13' N Lon. 7° 7' E Alt. 322 metri s.l.m.

sereno

22 °C

Sereno

Temp. 24 Ore

11 °C

23 °C

Ovest

13 Km/h

Dew point 11 °C

Umidità 49 %

Visibilità  10 Km

Il sole sorge alle ore 06:47

Il sole tramonta alle ore 20:15

Data e Ora Cielo e Fenomeni T °C DP °C Um. % Pres. hPa Vis. km Vento km/h
Oggi h: 19:20 sereno Sereno 22 11 49 1021 10 O 13
Oggi h: 18:50 sereno Sereno 23 11 46 1021 10 O/SO 14.8
Oggi h: 18:20 sereno Sereno 23 11 46 1021 10 O 13
Oggi h: 17:50 sereno Sereno 23 12 49 1021 10 O 9.3
Oggi h: 17:20 poco_nuvoloso Poco Nuvoloso 22 12 53 1021 10 O/SO 13
Oggi h: 16:50 sereno Sereno 22 11 49 1021 10 O/SO 18.5
Oggi h: 16:20 sereno Sereno 22 12 53 1021 10 O/SO 13
Oggi h: 15:50 poco_nuvoloso Poco Nuvoloso 23 13 53 1021 10 O 14.8
Oggi h: 15:20 poco_nuvoloso Poco Nuvoloso 21 12 56 1022 10 O 14.8
Oggi h: 14:50 poco_nuvoloso Poco Nuvoloso 21 13 60 1022 10 O/SO 18.5
Oggi h: 14:20 nuvoloso Nuvoloso 20 12 59 1022 10 O/SO 20.3
Oggi h: 13:50 sereno Sereno 20 12 59 1022 10 SO 18.5
Oggi h: 13:20 molto_nuvoloso Molto Nuvoloso 20 12 59 1022 10 O/SO 16.7
Oggi h: 12:50 nuvoloso Nuvoloso 20 12 59 1022 10 SO 20.3
Oggi h: 12:20 nuvoloso Nuvoloso 20 13 64 1022 10 O/SO 13
Oggi h: 11:50 poco_nuvoloso Poco Nuvoloso 19 13 68 1023 10 SO 16.7
Oggi h: 11:20 poco_nuvoloso Poco Nuvoloso 19 13 68 1023 10 SO 13
Oggi h: 10:50 sereno Sereno 18 13 72 1023 10 SO 7.4
Oggi h: 10:20 sereno Sereno 17 13 77 1022 10 N 3.7
Oggi h: 09:50 sereno Sereno 16 13 82 1022 10 S/SE 7.4
Oggi h: 09:20 sereno Sereno 16 12 77 1022 10 N 5.5
Oggi h: 08:50 sereno Sereno 15 12 82 1022 10 N 5.5
Oggi h: 08:20 sereno Sereno 14 12 87 1022 10 N 3.7
Oggi h: 07:50 sereno Sereno 13 12 93 1022 10 N 3.7
Oggi h: 07:20 sereno Sereno 11 11 100 1021 10 N 3.7
Oggi h: 06:50 sereno Sereno 11 11 100 1021 10 N 1.8
Oggi h: 06:20 sereno Sereno 11 11 100 1021 10 N 3.7
Oggi h: 05:50 sereno Sereno 11 11 100 1021 10 N 5.5
Oggi h: 05:20 sereno Sereno 12 11 93 1021 10 N 1.8
Oggi h: 04:50 sereno Sereno 12 12 100 1021 10 N 1.8
Oggi h: 04:20 sereno Sereno 12 12 100 1021 10 N 3.7
Oggi h: 03:50 sereno Sereno 13 11 87 1021 10 O 7.4
Oggi h: 03:20 sereno Sereno 13 12 93 1021 10 N 5.5
Oggi h: 02:50 sereno Sereno 13 12 93 1021 10 N 3.7
Oggi h: 02:20 sereno Sereno 14 12 87 1021 10 O 7.4
Oggi h: 01:50 sereno Sereno 14 12 87 1021 10 N 1.8
Oggi h: 01:20 sereno Sereno 13 12 93 1021 10 N 3.7
Oggi h: 00:50 sereno Sereno 14 12 87 1021 10 N 5.5
Oggi h: 00:20 sereno Sereno 15 12 82 1021 10 N 5.5
Ieri h: 23:50 sereno Sereno 15 12 82 1020 10 N 1.8
Ieri h: 23:20 sereno Sereno 15 12 82 1020 10 O 13
Ieri h: 22:50 sereno Sereno 15 13 87 1020 10 O 13
Ieri h: 22:20 sereno Sereno 15 13 87 1020 10 O 7.4
Ieri h: 21:50 sereno Sereno 16 14 87 1019 10 O 7.4
Ieri h: 21:20 sereno Sereno 16 14 87 1019 10 O 14.8
Ieri h: 20:50 nuvoloso Nuvoloso 16 14 87 1019 10 O/SO 7.4
Ieri h: 20:20 nuvoloso_piovaschi Pioggia 17 14 82 1018 10 O 20.3
Ieri h: 19:50 poco_nuvoloso Pioggia nelle vicinanze 20 12 59 1017 10 O/SO 24